EN

Hourly Weather Bolshie Krutcy

Today, 21 October, Wednesday

Time Temperature Precipitation Wind Pressure Humidity
00:00 -2°C° 0 mm 3 mps 750 mmHg 86%
01:00 -2°C° 0 mm 3 mps 751 mmHg 88%
02:00 -2°C° 0 mm 3 mps 751 mmHg 89%
03:00 -2°C° 0 mm 3 mps 751 mmHg 90%
04:00 -2°C° 0 mm 3 mps 751 mmHg 91%
05:00 -3°C° 0 mm 4 mps 751 mmHg 92%
06:00 -2°C° 0 mm 3 mps 751 mmHg 89%
07:00 -2°C° 0 mm 3 mps 752 mmHg 87%
08:00 -1°C° 0 mm 3 mps 752 mmHg 84%
09:00 0°C° 0 mm 3 mps 752 mmHg 80%
10:00 0°C° 0 mm 3 mps 752 mmHg 77%
11:00 +1°C° 0 mm 3 mps 752 mmHg 73%
12:00 +2°C° 0 mm 2 mps 752 mmHg 73%
13:00 +3°C° 0 mm 2 mps 752 mmHg 73%
14:00 +3°C° 0 mm 2 mps 752 mmHg 72%
15:00 +2°C° 0 mm 2 mps 752 mmHg 77%
16:00 +2°C° 0 mm 1 mps 751 mmHg 83%
17:00 +2°C° 0 mm 1 mps 751 mmHg 88%
18:00 +2°C° 0 mm 1 mps 751 mmHg 90%
19:00 +2°C° 0 mm 1 mps 751 mmHg 93%
20:00 +1°C° 0 mm 1 mps 751 mmHg 96%
21:00 +2°C° 0 mm 1 mps 751 mmHg 96%
22:00 +2°C° 0 mm 1 mps 751 mmHg 96%
23:00 +2°C° 0 mm 1 mps 750 mmHg 97%

Tomorrow, 22 October, Thursday

Time Temperature Precipitation Wind Pressure Humidity
00:00 +2°C° 0 mm 1 mps 751 mmHg 97%
01:00 +2°C° 0 mm 1 mps 751 mmHg 97%
02:00 +3°C° 0 mm 1 mps 751 mmHg 98%
03:00 +3°C° 0 mm 1 mps 751 mmHg 98%
04:00 +2°C° 0 mm 2 mps 750 mmHg 97%
05:00 +2°C° 0 mm 2 mps 750 mmHg 97%
06:00 +2°C° 0 mm 2 mps 750 mmHg 96%
07:00 +2°C° 0 mm 2 mps 750 mmHg 95%
08:00 +3°C° 0 mm 2 mps 750 mmHg 95%
09:00 +2°C° 0 mm 3 mps 749 mmHg 93%
10:00 +3°C° 0 mm 3 mps 749 mmHg 91%
11:00 +4°C° 0 mm 3 mps 749 mmHg 89%
12:00 +4°C° 0 mm 3 mps 748 mmHg 89%
13:00 +4°C° 0 mm 4 mps 748 mmHg 88%
14:00 +5°C° 0 mm 4 mps 747 mmHg 87%
15:00 +4°C° 0.1 mm 4 mps 747 mmHg 90%
16:00 +4°C° 0.1 mm 4 mps 746 mmHg 92%
17:00 +3°C° 0.1 mm 5 mps 745 mmHg 94%
18:00 +3°C° 0.7 mm 5 mps 744 mmHg 94%
19:00 +3°C° 0.7 mm 5 mps 744 mmHg 95%
20:00 +5°C° 0.7 mm 5 mps 743 mmHg 95%
21:00 +5°C° 0.5 mm 5 mps 743 mmHg 95%
22:00 +5°C° 0.5 mm 5 mps 742 mmHg 95%
23:00 +5°C° 0.5 mm 5 mps 741 mmHg 96%

Day after tomorrow, 23 October, Friday

Time Temperature Precipitation Wind Pressure Humidity
00:00 +6°C° 1 mm 4 mps 741 mmHg 96%
01:00 +6°C° 1 mm 4 mps 740 mmHg 96%
02:00 +6°C° 1 mm 4 mps 740 mmHg 97%
03:00 +7°C° 0.5 mm 4 mps 740 mmHg 94%
04:00 +8°C° 0.5 mm 5 mps 740 mmHg 92%
05:00 +9°C° 0.5 mm 5 mps 740 mmHg 90%
06:00 +9°C° 0 mm 5 mps 740 mmHg 89%
07:00 +9°C° 0 mm 5 mps 740 mmHg 89%
08:00 +10°C° 0 mm 4 mps 740 mmHg 89%
09:00 +9°C° 0 mm 5 mps 740 mmHg 86%
10:00 +10°C° 0 mm 5 mps 740 mmHg 83%
11:00 +10°C° 0 mm 5 mps 741 mmHg 80%
12:00 +10°C° 0 mm 5 mps 740 mmHg 80%
13:00 +11°C° 0 mm 4 mps 740 mmHg 79%
14:00 +11°C° 0 mm 4 mps 740 mmHg 79%
15:00 +11°C° 0.6 mm 4 mps 739 mmHg 84%
16:00 +10°C° 0.6 mm 3 mps 739 mmHg 89%
17:00 +10°C° 0.6 mm 3 mps 738 mmHg 94%
18:00 +10°C° 1.4 mm 2 mps 738 mmHg 95%
19:00 +9°C° 1.4 mm 2 mps 737 mmHg 96%
20:00 +9°C° 1.4 mm 2 mps 737 mmHg 97%
21:00 +9°C° 0.4 mm 2 mps 737 mmHg 96%
22:00 +10°C° 0.4 mm 3 mps 737 mmHg 95%
23:00 +10°C° 0.4 mm 4 mps 737 mmHg 93%

24 October, Saturday

Time Temperature Precipitation Wind Pressure Humidity
00:00 +10°C° 0 mm 4 mps 737 mmHg 91%
01:00 +8°C° 0 mm 5 mps 737 mmHg 88%
02:00 +8°C° 0 mm 5 mps 738 mmHg 85%
03:00 +8°C° 0 mm 5 mps 738 mmHg 85%
04:00 +8°C° 0 mm 5 mps 739 mmHg 84%
05:00 +8°C° 0 mm 5 mps 739 mmHg 84%
06:00 +8°C° 0 mm 5 mps 739 mmHg 85%
07:00 +7°C° 0 mm 4 mps 740 mmHg 85%
08:00 +7°C° 0 mm 4 mps 740 mmHg 86%
09:00 +8°C° 0 mm 4 mps 741 mmHg 82%
10:00 +8°C° 0 mm 5 mps 742 mmHg 78%
11:00 +9°C° 0 mm 5 mps 742 mmHg 74%
12:00 +10°C° 0 mm 4 mps 743 mmHg 74%
13:00 +10°C° 0 mm 4 mps 743 mmHg 75%
14:00 +10°C° 0 mm 3 mps 743 mmHg 75%
15:00 +9°C° 0.1 mm 3 mps 743 mmHg 80%
16:00 +8°C° 0.1 mm 2 mps 743 mmHg 85%
17:00 +8°C° 0.1 mm 2 mps 743 mmHg 90%
18:00 +9°C° 0 mm 1 mps 743 mmHg 90%
19:00 +9°C° 0 mm 1 mps 743 mmHg 91%
20:00 +9°C° 0 mm 1 mps 744 mmHg 91%
21:00 +8°C° 0 mm 1 mps 743 mmHg 91%
22:00 +8°C° 0.1 mm 1 mps 743 mmHg 90%
23:00 +7°C° 0.1 mm 0 mps 743 mmHg 89%

25 October, Sunday

Time Temperature Precipitation Wind Pressure Humidity
00:00 +8°C° 0 mm 1 mps 743 mmHg 89%
01:00 +8°C° 0 mm 1 mps 743 mmHg 89%
02:00 +8°C° 0 mm 1 mps 743 mmHg 88%
03:00 +8°C° 0 mm 1 mps 743 mmHg 89%
04:00 +8°C° 0 mm 1 mps 743 mmHg 89%
05:00 +8°C° 0 mm 1 mps 743 mmHg 89%
06:00 +8°C° 0 mm 1 mps 743 mmHg 90%
07:00 +7°C° 0 mm 2 mps 742 mmHg 90%
08:00 +7°C° 0 mm 2 mps 742 mmHg 90%
09:00 +7°C° 0 mm 2 mps 743 mmHg 89%
10:00 +7°C° 0 mm 2 mps 743 mmHg 88%
11:00 +8°C° 0 mm 3 mps 743 mmHg 87%
12:00 +8°C° 0.1 mm 3 mps 743 mmHg 86%
13:00 +8°C° 0.1 mm 3 mps 744 mmHg 86%
14:00 +8°C° 0.1 mm 3 mps 744 mmHg 86%
15:00 +7°C° 0 mm 3 mps 744 mmHg 87%
16:00 +5°C° 0 mm 3 mps 745 mmHg 88%
17:00 +5°C° 0 mm 3 mps 745 mmHg 90%
18:00 +4°C° 0 mm 3 mps 746 mmHg 90%
19:00 +3°C° 0 mm 3 mps 747 mmHg 91%
20:00 +3°C° 0 mm 3 mps 747 mmHg 92%
21:00 +2°C° 0 mm 3 mps 748 mmHg 92%
22:00 +3°C° 0 mm 2 mps 748 mmHg 92%
23:00 +2°C° 0 mm 2 mps 749 mmHg 91%

26 October, Monday

Time Temperature Precipitation Wind Pressure Humidity
00:00 +2°C° 0 mm 2 mps 749 mmHg 91%
01:00 +2°C° 0 mm 2 mps 750 mmHg 91%
02:00 +2°C° 0 mm 2 mps 750 mmHg 91%
03:00 +1°C° 0 mm 2 mps 751 mmHg 92%
04:00 +1°C° 0 mm 2 mps 751 mmHg 93%
05:00 +1°C° 0 mm 2 mps 752 mmHg 93%
06:00 +2°C° 0 mm 1 mps 752 mmHg 92%
07:00 +3°C° 0 mm 1 mps 752 mmHg 90%
08:00 +3°C° 0 mm 1 mps 753 mmHg 89%
09:00 +4°C° 0 mm 1 mps 753 mmHg 84%
10:00 +6°C° 0 mm 1 mps 753 mmHg 79%
11:00 +7°C° 0 mm 1 mps 754 mmHg 74%
12:00 +8°C° 0 mm 1 mps 754 mmHg 75%
13:00 +8°C° 0 mm 1 mps 754 mmHg 75%
14:00 +8°C° 0 mm 1 mps 754 mmHg 76%
15:00 +7°C° 0 mm 1 mps 755 mmHg 81%
16:00 +6°C° 0 mm 1 mps 755 mmHg 86%
17:00 +6°C° 0 mm 1 mps 755 mmHg 91%
18:00 +5°C° 0 mm 1 mps 755 mmHg 92%
19:00 +5°C° 0 mm 1 mps 756 mmHg 93%
20:00 +5°C° 0 mm 1 mps 756 mmHg 94%
21:00 +5°C° 0 mm 1 mps 756 mmHg 94%
22:00 +5°C° 0 mm 1 mps 756 mmHg 94%
23:00 +5°C° 0 mm 1 mps 757 mmHg 95%

27 October, Tuesday

Time Temperature Precipitation Wind Pressure Humidity
00:00 +5°C° 0 mm 1 mps 757 mmHg 95%
01:00 +3°C° 0 mm 2 mps 757 mmHg 95%
02:00 +3°C° 0 mm 2 mps 757 mmHg 95%
03:00 +3°C° 0 mm 2 mps 757 mmHg 95%
04:00 +3°C° 0 mm 2 mps 758 mmHg 95%
05:00 +3°C° 0 mm 2 mps 758 mmHg 95%
06:00 +3°C° 0 mm 2 mps 758 mmHg 94%
07:00 +3°C° 0 mm 2 mps 758 mmHg 94%
08:00 +4°C° 0 mm 2 mps 758 mmHg 94%
09:00 +5°C° 0 mm 2 mps 758 mmHg 90%
10:00 +5°C° 0 mm 3 mps 759 mmHg 86%
11:00 +7°C° 0 mm 3 mps 759 mmHg 82%
12:00 +7°C° 0 mm 3 mps 759 mmHg 81%
13:00 +8°C° 0 mm 3 mps 759 mmHg 80%
14:00 +8°C° 0 mm 3 mps 759 mmHg 80%
15:00 +7°C° 0 mm 3 mps 759 mmHg 83%
16:00 +5°C° 0 mm 3 mps 758 mmHg 87%
17:00 +4°C° 0 mm 3 mps 758 mmHg 91%
18:00 +4°C° 0 mm 3 mps 758 mmHg 91%
19:00 +4°C° 0 mm 3 mps 758 mmHg 91%
20:00 +4°C° 0 mm 3 mps 758 mmHg 91%
21:00 +4°C° 0 mm 3 mps 758 mmHg 90%
22:00 +3°C° 0 mm 4 mps 758 mmHg 90%
23:00 +3°C° 0 mm 4 mps 758 mmHg 90%
Show more